Погода в Одессе

Погода в Одессе : погода сейчас, прогноз погоды и архив. Всё, что Вы хотите узнать о погоде в Одессе!

Хотите узнать прогноз погоды в Одессе? Тогда Вам сюда: Погода в Одессе

Поиск расширенной информации на нашем сайте:

Другие новости

Новости СМИ2

Главная страница сайта

Новости сайта

02.10.2013

Напоминаем, что на нашем новом сайте вы можете получить высокодетализированные прогнозы погоды по пунктам России, СНГ и мира (включающие важные для авиации метеовеличины, такие как направление и скорость ветра, видимость, явления погоды, количество и форма облачности, нижняя и верхняя граница облачности), а также ознакомиться с разнообразными материалами по авиационной метеорологии и подборкой полезных ссылок на эту тему.

Сайт Метеоцентр.Азия посвящён разработке технологий оптимизации авиаметеорологического обслуживания, включая проектирование и перспективное создание нескольких автоматизированных авиаметеорологических систем:
- система выпуска высокодетальных прогностических карт явлений погоды для нижнего воздушного пространства по России и ближнему зарубежью;
- система верификации прогнозов TAF (выпускаемых синоптиками официальных АМСГ РФ и ближнего зарубежья) и AUTOTAF (выпускаемых сайтом Метеоцентр.Азия) - выявление ошибок, онлайн-сопоставление с фактической погодой METAR, автоматическое внесение коррективов в прогнозы при резком отклонении фактической погоды от прогноза, подсчёт оправдываемости прогнозов по элементам и в целом;
- система обработки, анализа и отображения авиаметеорологической информации для применения провайдерами метеорологической информации.


Погода в Одессе - сегодня

Время (UTC), дата Ветер
(°,м/с) 
Видим.   Явления Облачность Т
(°С)
Тd
(°С)
f(%) Тe
(°С)
Pmin
(гПа)
dP
(гПа)
Po
(мм)
O2
(г/м3)
Тmin Tmax R s Состояние
почвы
06 27.03.17 300 (СЗ) 21000 м    3/3 600 м 
[Sc]
+4.3 +0 74 +4  1020.6  0.1  761  302  +1.9         
09 27.03.17 290 (З) 50000 м    10/6 800 м средняя, верхняя 
[Sc|Ac trans|Ci]
+7.1 +0.2 61 +5  1019.4  -1.1  761  299           
12 27.03.17 280 (З) 30000 м    9/6 1500 м средняя 
[Sc|Ac trans]
+9.3 +0.9 56 +8  1016  -3.3  758  295           
15 27.03.17 300 (СЗ) 35000 м    8/8 1440 м 
[Sc]
+11.9 +1.2 48 +11  1015.1  -0.9  758  292           
18 27.03.17 280 (З) 24000 м    8/3 600 м средняя 
[Sc|Ac und]
+10.1 +2.3 58 +10  1016.5  1.4  759  294    +12.1       
21 27.03.17 270 (З) 22000 м    ясно 
+7.5 +2.1 69 +7  1018.2  1.6  760  298           
00 28.03.17 280 (З) 14000 м    ясно 
+6.8 +1.9 71 +7  1018.1  -0.1  760  298           
03 28.03.17 270 (З) 20000 м    ясно 
+6.4 +2.2 74 +6  1017.8  -0.3  759  299           
06 28.03.17 280 (З) 16000 м    ясно 
+9.8 +4.1 68 +10  1017.6  -0.1  759  295  +5.6         
09 28.03.17 270 (З) 25000 м    8/0 верхняя 
[Ci sp]
+16.6 +4.7 45 +17  1016.2  -1.3  758  287           
12 28.03.17 290 (З) 30000 м    8/0 средняя, верхняя 
[Ac trans|Ci fib]
+20 +3.5 34 +20  1013.5  -2.6  756  283           
15 28.03.17 300 (СЗ) 29000 м    3/0 верхняя 
[Ci fib]
+19.4 +2.2 32 +20  1013  -0.6  756  284           
18 28.03.17 280 (З) 22000 м    ясно 
+15.6 +3.3 44 +16  1015.2  2.2  758  288    +21       
21 28.03.17 290 (З) 25000 м    ясно 
+12.8 +4.7 58 +13  1017.8  2.5  760  292           
00 29.03.17 300 (СЗ) 22000 м    ясно 
+12.2 +5 61 +13  1018.8  760  292           
03 29.03.17 280 (З) 12000 м    ясно 
+7.6 +4.1 78 +8  1020.1  1.2  761  298           
06 29.03.17 тихо ()   14000 м    ясно 
+12.3 +5.4 63 +12  1021  762  293  +6.7         
09 29.03.17 150 (ЮВ) 10 км    3/3 600 м 
[Cu hum]
+13.2 +5.7 60 +13  1021.4  0.4  762  292           
12 29.03.17 180 (Ю) 13000 м    3/3 600 м верхняя 
[Cu hum|Ci fib]
+14.3 +6.6 60 +14  1019  -2.4  760  290           
15 29.03.17 220 (ЮЗ) 17000 м    6/3 600 м верхняя 
[Sc diur, vesp|Ci fib]
+15.6 +5.8 52 +16  1017.1  -1.8  759  288           
18 29.03.17 230 (ЮЗ) 16000 м    ясно 
+13.9 +5.4 56 +14  1016.8  -0.4  759  290    +17.7       
21 29.03.17 260 (З) 22000 м    ясно 
+13.1 +6.6 65 +13  1016  -0.8  758  290           
00 30.03.17 260 (З) 20000 м    8/0 верхняя 
[Ci fib]
+12.4 +5.3 62 +12  1014.2  -1.8  757  291           
03 30.03.17 310 (СЗ) 21000 м    8/0 средняя, верхняя 
[Ac trans|Ci fib]
+13.3 +3.8 53 +14  1015  0.8  757  290           
06 30.03.17 310 (СЗ) 18000 м    8/0 средняя, верхняя 
[Ac und|Ci fib]
+11.8 +5.8 67 +11  1017.5  2.5  759  292  +11.5         
Время (UTC), дата Ветер
(°,м/с) 
Видим.   Явления Облачность Т
(°С)
Тd
(°С)
f(%) Тe
(°С)
Pmin
(гПа)
dP
(гПа)
Po
(мм)
O2
(г/м3)
Тmin Tmax R s Состояние
почвы

Для получения пояснительной информации подведите курсор к названию столбца.

ПОГОДА в Одессе - архив

Всё, что Вы хотите узнать о погоде в Одессе - удобно и подробно!

Выберите нужную дату (начиная с 1 января 2015* года) и нажмите кнопку "Найти".
Будут отображены архивные сводки погоды по пункту Одесса, начиная с указанной даты.


Отображать данные в формате CSV (для использования в таблицах Excel)


Внимание! Наш архив погоды предназначен исключительно для личного некоммерческого использования в познавательных целях. Если Вам необходимы официальные справки о состоянии погоды (для производственных, юридических, коммерческих и т.п. целей), обращайтесь в органы Росгидромета.

*Примечание: данная дата относится к архиву по метеостанциям СССР (Россия, СНГ, Балтия).
Архив по метеостанциям Зарубежной Европы и Азии (кроме Китая) хранится 10 дней, по другим регионам земного шара (Китай, Африка, Америка, Австралия, Океания) - 1 день.

Одесса - район местоположения метеостанции


Название, широта, долгота, высота метеостанции:
Одесса (город) 46.4°ш. 30.8°д. 42 м над ур. моря [Украина]

Дополнительная информация

В oтличие oт бoльшинства пoгoдных сайтoв мы публикуем пoдрoбную метеoинфoрмацию в детальнoм прoфессиoнальнoм фoрмате.

Характеристики температуры и влажнoсти вoздуха измеряются на высoте 2 м в тени вдали oт зданий и деревьев.
Скoрoсть ветра измеряется на высoте 10 м (на урoвне рoста челoвека скoрoсть ветра ниже в 1.5-2 раза). Если метеoстанция нахoдится в гoрoде или в лесу, тo скoрoсть ветра занижена на 2-4 м/с пo сравнению с oткрытым местoм. Скoрoсть ветра над акватoриями крупных рек и oзёр, а также на вершинах хoлмoв на 2-5 м/с выше, чем в oбычных услoвиях.
Атмoсфернoе давление в разных тoчках местнoсти мoжет значительнo oтличаться oт давления на метеoстанции, в зависимoсти oт услoвий рельефа (при пoдъёме на 10 м давление пoнижается примернo на 1 мм рт.ст.).